TimeCEST,TemperatureF,Dew PointF,Humidity,Sea Level PressureIn,VisibilityMPH,Wind Direction,Wind SpeedMPH,Gust SpeedMPH,PrecipitationIn,Events,Conditions,WindDirDegrees,DateUTC
12:00 AM,69.8,57.2,64,30.04,-9999.0,Variable,3.5,-,N/A,,Clear,0,2013-08-05 22:00:00
12:30 AM,69.8,57.2,64,30.04,-9999.0,Variable,2.3,-,N/A,,Clear,0,2013-08-05 22:30:00
1:00 AM,68.0,57.2,68,30.04,-9999.0,Variable,3.5,-,N/A,,Clear,0,2013-08-05 23:00:00
1:30 AM,68.0,57.2,68,30.04,-9999.0,Variable,3.5,-,N/A,,Clear,0,2013-08-05 23:30:00
2:00 AM,68.0,59.0,73,30.04,-9999.0,Variable,3.5,-,N/A,,Clear,0,2013-08-06 00:00:00
2:30 AM,68.0,59.0,73,30.04,-9999.0,Variable,3.5,-,N/A,,Clear,0,2013-08-06 00:30:00
3:00 AM,66.2,59.0,78,30.04,-9999.0,Variable,3.5,-,N/A,,Clear,0,2013-08-06 01:00:00
3:30 AM,66.2,57.2,73,30.04,-9999.0,North,6.9,-,N/A,,Clear,350,2013-08-06 01:30:00
4:00 AM,66.2,59.0,78,30.04,-9999.0,NNW,4.6,-,N/A,,Clear,330,2013-08-06 02:00:00
4:30 AM,66.2,59.0,78,30.04,-9999.0,Variable,3.5,-,N/A,,Clear,0,2013-08-06 02:30:00
5:00 AM,68.0,59.0,73,30.04,-9999.0,North,8.1,-,N/A,,Clear,350,2013-08-06 03:00:00
5:30 AM,66.2,57.2,73,30.04,-9999.0,Variable,2.3,-,N/A,,Clear,0,2013-08-06 03:30:00
6:00 AM,64.4,59.0,83,30.04,-9999.0,Variable,3.5,-,N/A,,Clear,0,2013-08-06 04:00:00
6:30 AM,68.0,60.8,78,30.04,-9999.0,Variable,2.3,-,N/A,,Clear,0,2013-08-06 04:30:00
7:00 AM,71.6,62.6,73,30.04,-9999.0,Variable,3.5,-,N/A,,Clear,0,2013-08-06 05:00:00
7:30 AM,75.2,60.8,61,30.04,-9999.0,NE,6.9,-,N/A,,Clear,50,2013-08-06 05:30:00
8:00 AM,77.0,60.8,57,30.04,-9999.0,ENE,6.9,-,N/A,,Clear,60,2013-08-06 06:00:00
8:30 AM,78.8,60.8,54,30.06,-9999.0,East,6.9,-,N/A,,Clear,80,2013-08-06 06:30:00
9:00 AM,80.6,60.8,51,30.06,-9999.0,ENE,6.9,-,N/A,,Clear,70,2013-08-06 07:00:00
9:30 AM,84.2,59.0,42,30.06,-9999.0,SE,4.6,-,N/A,,Clear,130,2013-08-06 07:30:00
10:00 AM,86.0,60.8,43,30.06,-9999.0,East,6.9,-,N/A,,Clear,100,2013-08-06 08:00:00
10:30 AM,86.0,59.0,40,30.06,-9999.0,SE,5.8,-,N/A,,Clear,130,2013-08-06 08:30:00
11:00 AM,87.8,59.0,38,30.04,-9999.0,East,6.9,-,N/A,,Clear,90,2013-08-06 09:00:00
11:30 AM,89.6,59.0,36,30.04,-9999.0,SSE,4.6,-,N/A,,Clear,150,2013-08-06 09:30:00
12:00 PM,91.4,59.0,34,30.04,-9999.0,South,5.8,-,N/A,,Clear,190,2013-08-06 10:00:00
12:30 PM,91.4,57.2,31,30.04,-9999.0,WSW,6.9,-,N/A,,Clear,250,2013-08-06 10:30:00
1:00 PM,91.4,57.2,31,30.04,-9999.0,Variable,3.5,-,N/A,,Clear,0,2013-08-06 11:00:00
1:30 PM,93.2,57.2,30,30.04,-9999.0,WNW,4.6,-,N/A,,Clear,290,2013-08-06 11:30:00
2:00 PM,93.2,57.2,30,30.01,-9999.0,SW,8.1,20.7,N/A,,Clear,220,2013-08-06 12:00:00
2:30 PM,93.2,57.2,30,30.01,-9999.0,SSW,6.9,-,N/A,,Clear,200,2013-08-06 12:30:00
3:00 PM,95.0,57.2,28,30.01,-9999.0,SSW,9.2,-,N/A,,Clear,200,2013-08-06 13:00:00
3:30 PM,95.0,55.4,26,29.98,-9999.0,South,8.1,-,N/A,,Clear,170,2013-08-06 13:30:00
4:00 PM,96.8,55.4,25,29.98,-9999.0,SSE,6.9,-,N/A,,Clear,150,2013-08-06 14:00:00
4:30 PM,95.0,55.4,26,29.98,-9999.0,SSE,8.1,-,N/A,,Clear,150,2013-08-06 14:30:00
5:00 PM,95.0,53.6,25,29.98,-9999.0,SSE,5.8,-,N/A,,Clear,150,2013-08-06 15:00:00
5:30 PM,95.0,55.4,26,29.95,-9999.0,SSE,8.1,-,N/A,,Clear,150,2013-08-06 15:30:00
6:00 PM,95.0,55.4,26,29.95,-9999.0,SE,6.9,-,N/A,,Clear,140,2013-08-06 16:00:00
6:30 PM,95.0,55.4,26,29.95,-9999.0,South,8.1,-,N/A,,Clear,190,2013-08-06 16:30:00
7:00 PM,95.0,55.4,26,29.95,-9999.0,South,6.9,-,N/A,,Clear,180,2013-08-06 17:00:00
7:30 PM,93.2,53.6,26,29.95,-9999.0,South,5.8,-,N/A,,Clear,180,2013-08-06 17:30:00
8:00 PM,91.4,55.4,29,29.95,-9999.0,SE,9.2,-,N/A,,Clear,140,2013-08-06 18:00:00
8:30 PM,84.2,57.2,40,29.95,-9999.0,SE,6.9,-,N/A,,Clear,130,2013-08-06 18:30:00
9:00 PM,82.4,57.2,42,29.95,-9999.0,East,4.6,-,N/A,,Clear,90,2013-08-06 19:00:00
9:30 PM,80.6,57.2,45,29.95,-9999.0,East,4.6,-,N/A,,Clear,90,2013-08-06 19:30:00
10:00 PM,80.6,57.2,45,29.95,-9999.0,Variable,2.3,-,N/A,,Clear,0,2013-08-06 20:00:00
10:30 PM,75.2,59.0,57,29.98,-9999.0,Variable,2.3,-,N/A,,Clear,0,2013-08-06 20:30:00
11:00 PM,78.8,59.0,51,29.95,-9999.0,ENE,4.6,-,N/A,,Clear,70,2013-08-06 21:00:00
11:30 PM,75.2,59.0,57,29.95,-9999.0,ENE,4.6,-,N/A,,Clear,70,2013-08-06 21:30:00